Location: Aucun
(42.9667°N, 0.1667°W)
Time: 07:53:04
(UTC+00:00)

STARLINK-1107 - Pass Details

Date: 17 February 2020
Orbit: 379 x 380 km, 53.0° (Epoch: 31 March)

Event Time Altitude Azimuth Distance (km) Brightness Sun altitude
Exits shadow 03:53:07 - 104° (ESE) 1,934 7.1 -33.9°
Enters shadow 04:52:10 -64° 232° (SW) 11,896 10.4 -23.3°
Maximum altitude 05:26:45 50° 139° (SE) 499 3.6 -17.0°
